Orbital Elements at Epoch 2459000.5 (2020-May-31.0) TDB
Reference: JPL 14 (heliocentric ecliptic J2000)
Element | Value | Uncertainty (1-sigma) | Units |
e | .06885645155628738 | 5.7853e-08 | |
a | 3.08997514103107 | 4.7582e-08 | au |
q | 2.877210417422532 | 1.6893e-07 | au |
i | 6.52433039070997 | 8.9836e-06 | deg |
node | 212.7308604454423 | 4.7254e-05 | deg |
peri | 286.2541170761836 | 8.0625e-05 | deg |
M | 74.18275289658158 | 6.4416e-05 | deg |
tp | 2458591.680737722443 (2019-Apr-18.18073772) | 0.00035632 | TDB |
period | 1983.950833222615 5.43 | 4.5825e-05 1.255e-07 | d yr |
n | .1814561096835433 | 4.1913e-09 | deg/d |
Q | 3.302739864639608 | 5.0858e-08 | au |
|
| | Orbit Determination Parameters
Additional Information
|